[[{"header":{"parameterUnit":"m.s-1","parameterCategory":1,"la1":30.2992,"la2":30.254,"lo1":-89.0895,"lo2":-89.0443,"dy":0.0025,"dx":0.0025,"nx":19,"ny":19,"refTime":"2026-04-26T03:00:00:Z","depth":0,"parameterNumber":2,"parameterNumberName":"U-component_of_WINDS"},"data":[0,0,0,-1.3015,-1.3012,-1.2842,-1.2841,-1.2659,-1.2657,0,0,0,0,0,0,0,0,0,0,0,-1.3088,-1.3088,-1.3015,-1.3011,-1.2842,-1.2841,-1.2659,-1.2657,0,0,0,0,0,0,0,0,0,0,0,-1.3088,-1.3088,-1.3088,-1.3011,-1.2843,-1.2841,-1.2659,-1.2774,0,0,0,0,0,0,0,0,0,0,-1.2932,-1.3024,-1.3088,-1.3088,-1.301,-1.2843,-1.2841,-1.2779,-1.2767,-1.2751,0,-1.2745,0,-1.2699,-1.2647,-1.2647,0,0,0,-1.2993,-1.3034,-1.2968,-1.3087,-1.3009,-1.2843,-1.2913,-1.2772,-1.2758,-1.2735,-1.2742,-1.2734,-1.2696,-1.2647,-1.2646,-1.2624,-1.2625,0,0,-1.3002,-1.3069,-1.2978,-1.296,-1.2992,-1.2919,-1.2908,-1.2763,-1.2774,-1.2741,-1.273,-1.2693,-1.2646,-1.2644,-1.2623,-1.2624,0,0,0,-1.3042,-1.3077,-1.3013,-1.2969,-1.2936,-1.2915,-1.2902,-1.278,-1.2754,-1.2727,-1.2691,-1.2645,-1.2643,-1.2622,-1.2623,-1.273,0,0,0,-1.3046,-1.31,-1.3018,-1.3058,-1.294,-1.2857,-1.2924,-1.2765,-1.2746,-1.2692,-1.2645,-1.2641,-1.2621,-1.2623,-1.2725,-1.2768,0,0,0,-1.3091,-1.3104,-1.3089,-1.3062,-1.2992,-1.2857,-1.2822,-1.2759,-1.2725,-1.2647,-1.2641,-1.2621,-1.2623,-1.272,-1.276,-1.2784,0,0,0,-1.3157,-1.3182,-1.3091,-1.3104,-1.2994,-1.2926,-1.2823,-1.2767,-1.2713,-1.2644,-1.2621,-1.2623,-1.2719,-1.2756,-1.278,-1.2817,-1.2838,0,0,-1.3225,-1.3192,-1.3194,-1.3109,-1.3075,-1.2946,-1.2925,-1.281,-1.2738,-1.2665,-1.2664,-1.2726,-1.276,-1.2783,-1.2934,-1.2952,0,0,0,-1.3239,-1.3242,-1.3218,-1.3172,-1.3088,-1.3018,-1.29,-1.2857,-1.2793,-1.2716,-1.2738,-1.2756,-1.2767,-1.2781,-1.2796,-1.2801,-1.2633,-1.2633,-1.2632,-1.343,-1.3342,-1.3341,-1.3233,-1.319,-1.3069,-1.3025,-1.2947,-1.2866,-1.2874,-1.2851,-1.2954,-1.2974,-1.2985,-1.2992,-1.2863,-1.2863,-1.2863,-1.2864,-1.3523,-1.3514,-1.3411,-1.3374,-1.328,-1.3245,-1.313,-1.3076,-1.3029,-1.2963,-1.2967,-1.2904,-1.3007,-1.3008,-1.2871,-1.2869,-1.2869,-1.2868,-1.2867,-1.364,-1.362,-1.3571,-1.3498,-1.3451,-1.3339,-1.3301,-1.3214,-1.3133,-1.3138,-1.3106,-1.3104,-1.3092,-1.3129,-1.3129,-1.3129,-1.313,-1.313,-1.313,-1.3781,-1.3722,-1.3702,-1.3618,-1.3578,-1.3515,-1.3396,-1.3354,-1.3285,-1.3225,-1.3224,-1.3145,-1.3034,-1.3009,-1.3135,-1.3134,-1.3134,-1.3133,-1.3133,-1.391,-1.3868,-1.3838,-1.3799,-1.3693,-1.3653,-1.3545,-1.3467,-1.3419,-1.3403,-1.3323,-1.3255,-1.3214,-1.3201,-1.3179,-1.3342,-1.3342,-1.3342,-1.3342,-1.401,-1.3981,-1.3932,-1.3877,-1.3811,-1.3712,-1.3679,-1.3588,-1.3485,-1.345,-1.3413,-1.3377,-1.3368,-1.3332,-1.3316,-1.3295,-1.3483,-1.3483,-1.3484,-1.4084,-1.4046,-1.4037,-1.394,-1.3851,-1.3777,-1.3744,-1.3682,-1.3556,-1.3487,-1.3421,-1.3415,-1.3355,-1.334,-1.3271,-1.3249,-1.3207,0,0]},{"header":{"parameterUnit":"m.s-1","parameterCategory":1,"la1":30.2992,"la2":30.254,"lo1":-89.0895,"lo2":-89.0443,"dy":0.0025,"dx":0.0025,"nx":19,"ny":19,"refTime":"2026-04-26T03:00:00:Z","depth":0,"parameterNumber":3,"parameterNumberName":"V-component_of_WINDS"},"data":[0,0,0,3.2074,3.2071,3.1952,3.1951,3.1796,3.1795,0,0,0,0,0,0,0,0,0,0,0,3.211,3.2109,3.2074,3.2071,3.1952,3.1951,3.1796,3.1795,0,0,0,0,0,0,0,0,0,0,0,3.2111,3.211,3.2109,3.2071,3.1952,3.1951,3.1797,3.1887,0,0,0,0,0,0,0,0,0,0,3.2003,3.2039,3.211,3.2109,3.207,3.1952,3.1951,3.1891,3.1881,3.185,0,3.1826,0,3.1808,3.1784,3.1784,0,0,0,3.2069,3.2047,3.2014,3.2108,3.2069,3.1952,3.2005,3.1885,3.1874,3.1837,3.1823,3.1818,3.1805,3.1783,3.1783,3.1621,3.162,0,0,3.2075,3.2088,3.2022,3.2007,3.2029,3.2009,3.2001,3.1879,3.1863,3.1823,3.1814,3.1803,3.1782,3.1781,3.1622,3.1621,0,0,0,3.2096,3.2093,3.2063,3.2014,3.1993,3.2005,3.1997,3.1869,3.1858,3.1812,3.1801,3.1781,3.178,3.1622,3.1621,3.1605,0,0,0,3.21,3.2105,3.2066,3.2073,3.1995,3.193,3.199,3.1867,3.1853,3.1802,3.1781,3.1778,3.1623,3.1622,3.1607,3.1594,0,0,0,3.2117,3.2107,3.2091,3.2074,3.2024,3.1931,3.1914,3.1863,3.1846,3.1784,3.1778,3.1623,3.1622,3.1609,3.1597,3.1557,0,0,0,3.2139,3.2074,3.2091,3.2014,3.2025,3.1924,3.1915,3.1837,3.1782,3.1781,3.1623,3.1621,3.1609,3.1598,3.1559,3.1526,3.1514,0,0,3.2064,3.2066,3.202,3.2031,3.1931,3.1941,3.1836,3.177,3.175,3.1664,3.166,3.1606,3.1597,3.1557,3.1441,3.1431,0,0,0,3.2,3.1967,3.1938,3.1889,3.1841,3.1798,3.1748,3.1724,3.1652,3.171,3.158,3.1574,3.155,3.1534,3.1526,3.1505,3.1615,3.1615,3.1615,3.1911,3.1894,3.1817,3.1785,3.1737,3.1689,3.1648,3.1607,3.1598,3.1568,3.1542,3.1475,3.1456,3.145,3.1428,3.1524,3.1524,3.1524,3.1523,3.18,3.1751,3.1748,3.1672,3.1653,3.1587,3.1538,3.1536,3.147,3.1491,3.1469,3.1494,3.144,3.142,3.1522,3.1522,3.1522,3.1523,3.1523,3.174,3.1714,3.169,3.162,3.1567,3.1536,3.1476,3.1459,3.1442,3.142,3.1392,3.1392,3.1391,3.1408,3.1408,3.1408,3.1408,3.1407,3.1407,3.1687,3.166,3.1614,3.1561,3.1529,3.1485,3.1438,3.1405,3.1363,3.1355,3.1355,3.135,3.1439,3.1462,3.1404,3.1404,3.1405,3.1405,3.1405,3.158,3.1603,3.1531,3.15,3.1438,3.1388,3.1369,3.1304,3.1274,3.1245,3.1246,3.1314,3.1312,3.1319,3.1337,3.125,3.125,3.125,3.125,3.153,3.1529,3.1454,3.1406,3.1356,3.1333,3.1251,3.1215,3.1179,3.116,3.117,3.1194,3.1201,3.1195,3.1204,3.1221,3.1106,3.1106,3.1106,3.1464,3.1459,3.1393,3.1365,3.1316,3.1273,3.1196,3.1138,3.1102,3.1099,3.1144,3.115,3.1188,3.1201,3.1198,3.1212,3.1243,0,0]}]]